Location: ?????? ??????
(44.3742°N, 135.2221°E)
Time: 01:59:01
(UTC+00:00)

CZ-2C R/B - Pass Details

Date: 19 May 2025
Orbit: 703 x 902 km, 98.2° (Epoch: 14 June)

Event Time Altitude Azimuth Distance (km) Brightness Sun altitude
Rises 16:38:56 0° 8° (N) 3,525 7.7 -21.5°
Reaches altitude 10° 16:41:25 10° 3° (N) 2,588 6.7 -21.3°
Maximum altitude 16:46:59 49° 290° (WNW) 1,144 3.8 -20.8°
Enters shadow 16:49:02 34° 239° (WSW) 1,427 3.9 -20.7°
